Le nostre stazioni meteo in Italia

Pubblicità
Il mio iltempo24.it
Aviano, Italia (16036): Temperatura & dewpoint: 14.04.2018 20:00:00 - 20.04.2018 20:00:00 (CEST)Aviano, Italia (16036): velocità del vento: 14.04.2018 20:00:00 - 20.04.2018 20:00:00 (CEST)Aviano, Italia (16036): direzione del vento: 14.04.2018 20:00:00 - 20.04.2018 20:00:00 (CEST)Aviano, Italia (16036): reduced air pressure: 14.04.2018 20:00:00 - 20.04.2018 20:00:00 (CEST)Aviano, Italia (16036): visibility: 14.04.2018 20:00:00 - 20.04.2018 20:00:00 (CEST)
Data & Tempo tt [°C] td [°C] ff [km/h] ff [kn] dd ppp [hPa] vv [km]
20.04.2018 20:00:00 25,0 13,5 4 2 O 1020,0 25
20.04.2018 19:00:00 29,0 14,0 9 5 SO - 10
20.04.2018 18:00:00 29,0 14,0 13 7 SSO - 10
20.04.2018 17:00:00 29,4 13,6 11 6 SSO 1020,5 25
20.04.2018 16:00:00 29,0 14,0 11 6 S - 10
20.04.2018 15:00:00 29,0 15,0 11 6 SO - 10
20.04.2018 14:00:00 28,0 13,9 11 6 S 1022,5 25
20.04.2018 13:00:00 26,0 13,0 13 7 S - 10
20.04.2018 12:00:00 25,0 12,0 15 8 SSO - 10
20.04.2018 11:00:00 23,6 13,8 11 6 S 1023,9 30
20.04.2018 10:00:00 23,0 13,0 8 4 SSO - 10
20.04.2018 09:00:00 21,0 12,0 2 1 NO - 10
20.04.2018 08:00:00 16,8 14,1 5 3 NE 1024,3 30
20.04.2018 07:00:00 14,0 10,0 5 3 N - 10
20.04.2018 06:00:00 12,0 10,0 8 4 N - 10
20.04.2018 05:00:00 - - - - - - -
20.04.2018 04:00:00 - - - - - - -
20.04.2018 03:00:00 - - - - - - -
20.04.2018 02:00:00 - - - - - - -
20.04.2018 01:00:00 - - - - - - -
20.04.2018 00:00:00 - - - - - - -
19.04.2018 23:00:00 - - - - - - -
19.04.2018 22:00:00 19,0 10,0 8 4 N - 10
19.04.2018 21:00:00 20,0 11,0 9 5 N - 10
19.04.2018 20:00:00 23,2 11,0 5 3 NO 1024,7 25
19.04.2018 19:00:00 25,0 11,0 8 4 O - 10
19.04.2018 18:00:00 26,0 10,0 5 3 OSO - 10
19.04.2018 17:00:00 25,6 10,2 8 4 S 1025,2 25
19.04.2018 16:00:00 26,0 10,0 5 3 S - 10
19.04.2018 15:00:00 25,0 10,0 8 4 SO - 10
19.04.2018 14:00:00 24,8 10,7 5 3 O 1027,0 25
19.04.2018 13:00:00 24,0 10,0 11 6 SO - 10
19.04.2018 12:00:00 24,0 9,0 4 2 SO - 10
19.04.2018 11:00:00 22,2 10,7 8 4 S 1027,7 30
19.04.2018 10:00:00 21,0 10,0 5 3 O - 10
19.04.2018 09:00:00 19,0 11,0 2 1 ESE - 10
19.04.2018 08:00:00 14,6 11,2 8 4 NE 1028,7 30
19.04.2018 07:00:00 11,0 10,0 11 6 NNE - 10
19.04.2018 06:00:00 12,0 10,0 9 5 NNE - 10
19.04.2018 05:00:00 - - - - - - -
19.04.2018 04:00:00 - - - - - - -
19.04.2018 03:00:00 - - - - - - -
19.04.2018 02:00:00 - - - - - - -
19.04.2018 01:00:00 - - - - - - -
19.04.2018 00:00:00 - - - - - - -
18.04.2018 23:00:00 - - - - - - -
18.04.2018 22:00:00 18,0 13,0 8 4 NNE - 10
18.04.2018 21:00:00 20,0 13,0 4 2 O - 10
18.04.2018 20:00:00 21,2 13,4 9 5 SSO 1027,1 30
18.04.2018 19:00:00 23,0 14,0 11 6 SSO - 10
18.04.2018 18:00:00 24,0 11,0 8 4 SSO - 10
18.04.2018 17:00:00 24,4 10,3 8 4 SO 1026,5 30
18.04.2018 16:00:00 24,0 12,0 11 6 SO - 10
18.04.2018 15:00:00 24,0 11,0 13 7 SSO - 10
18.04.2018 14:00:00 23,4 11,5 9 5 SO 1028,4 30
18.04.2018 13:00:00 23,0 13,0 8 4 SSO - 10
18.04.2018 12:00:00 21,0 13,0 5 3 S - 10
18.04.2018 11:00:00 20,0 11,5 5 3 S 1028,2 30
18.04.2018 10:00:00 19,0 11,0 5 3 SSE - 10
18.04.2018 09:00:00 17,0 10,0 4 2 SSE - 10
18.04.2018 08:00:00 13,2 8,7 2 1 SO 1027,5 30
18.04.2018 07:00:00 12,0 9,0 4 2 N - 10
18.04.2018 06:00:00 11,0 9,0 8 4 N - 10
18.04.2018 05:00:00 - - - - - - -
18.04.2018 04:00:00 - - - - - - -
18.04.2018 03:00:00 - - - - - - -
18.04.2018 02:00:00 - - - - - - -
18.04.2018 01:00:00 - - - - - - -
18.04.2018 00:00:00 - - - - - - -
17.04.2018 23:00:00 - - - - - - -
17.04.2018 22:00:00 18,0 13,0 5 3 E - 10
17.04.2018 21:00:00 19,0 11,0 9 5 N - 10
17.04.2018 20:00:00 21,4 10,6 4 2 S 1021,5 30
17.04.2018 19:00:00 22,0 11,0 5 3 SSO - 10
17.04.2018 18:00:00 23,0 10,0 5 3 SSO - 10
17.04.2018 17:00:00 23,4 10,8 9 5 SO 1020,8 30
17.04.2018 16:00:00 24,0 11,0 9 5 S - 10
17.04.2018 15:00:00 23,0 10,0 4 2 SSE - 10
17.04.2018 14:00:00 22,4 10,9 8 4 SSO 1021,1 30
17.04.2018 13:00:00 22,0 14,0 9 5 SSE - 10
17.04.2018 12:00:00 20,0 14,0 8 4 S - 10
17.04.2018 11:00:00 19,4 13,4 8 4 SSO 1021,2 25
17.04.2018 10:00:00 18,0 14,0 8 4 SO - 10
17.04.2018 09:00:00 16,0 12,0 4 2 ONO - 10
17.04.2018 08:00:00 13,8 13,0 4 2 ENE 1019,9 25
17.04.2018 07:00:00 13,0 12,0 5 3 NNE - 10
17.04.2018 06:00:00 14,0 13,0 5 3 NE - 10
17.04.2018 05:00:00 - - - - - - -
17.04.2018 04:00:00 - - - - - - -
17.04.2018 03:00:00 - - - - - - -
17.04.2018 02:00:00 - - - - - - -
17.04.2018 01:00:00 - - - - - - -
17.04.2018 00:00:00 - - - - - - -
16.04.2018 23:00:00 - - - - - - -
16.04.2018 22:00:00 15,0 14,0 11 6 NE - 10
16.04.2018 21:00:00 15,0 14,0 8 4 N - 10
16.04.2018 20:00:00 16,0 14,7 11 6 N 1012,0 20
16.04.2018 19:00:00 16,0 15,0 13 7 NNO - 10
16.04.2018 18:00:00 15,0 14,0 13 7 NO - 10
16.04.2018 17:00:00 18,4 13,9 31 17 ENE 1011,2 15
16.04.2018 16:00:00 24,0 14,0 11 6 SE - 10
16.04.2018 15:00:00 24,0 13,0 13 7 ESE - 10
16.04.2018 14:00:00 23,8 14,0 8 4 E 1009,4 15
16.04.2018 13:00:00 23,0 13,0 11 6 E - 10
16.04.2018 12:00:00 22,0 14,0 15 8 E - 10
16.04.2018 11:00:00 22,0 14,4 15 8 E 1009,5 25
16.04.2018 10:00:00 20,0 14,0 13 7 NE - 10
16.04.2018 09:00:00 17,0 15,0 21 11 NNE - 10
16.04.2018 08:00:00 15,0 14,2 5 3 NNO 1009,3 25
16.04.2018 07:00:00 15,0 14,0 5 3 ESE - 10
16.04.2018 06:00:00 15,0 14,0 11 6 NNE - 10
16.04.2018 05:00:00 - - - - - - -
16.04.2018 04:00:00 - - - - - - -
16.04.2018 03:00:00 - - - - - - -
16.04.2018 02:00:00 - - - - - - -
16.04.2018 01:00:00 - - - - - - -
16.04.2018 00:00:00 - - - - - - -
15.04.2018 23:00:00 - - - - - - -
15.04.2018 22:00:00 - - - - - - -
15.04.2018 21:00:00 - - - - - - -
15.04.2018 20:00:00 - - - - - - -
15.04.2018 19:00:00 - - - - - - -
15.04.2018 18:00:00 - - - - - - -
15.04.2018 17:00:00 - - - - - - -
15.04.2018 16:00:00 - - - - - - -
15.04.2018 15:00:00 - - - - - - -
15.04.2018 14:00:00 - - - - - - -
15.04.2018 13:00:00 - - - - - - -
15.04.2018 12:00:00 - - - - - - -
15.04.2018 11:00:00 - - - - - - -
15.04.2018 10:00:00 - - - - - - -
15.04.2018 09:00:00 - - - - - - -
15.04.2018 08:00:00 - - - - - - -
15.04.2018 07:00:00 - - - - - - -
15.04.2018 06:00:00 - - - - - - -
15.04.2018 05:00:00 - - - - - - -
15.04.2018 04:00:00 - - - - - - -
15.04.2018 03:00:00 - - - - - - -
15.04.2018 02:00:00 - - - - - - -
15.04.2018 01:00:00 - - - - - - -
15.04.2018 00:00:00 - - - - - - -
14.04.2018 23:00:00 - - - - - - -
14.04.2018 22:00:00 15,0 8,0 16 9 NNE - 10
14.04.2018 21:00:00 16,0 7,0 11 6 NNE - 10
14.04.2018 20:00:00 19,6 8,9 4 2 SSE 1018,1 25

tt = Temperatura
td = dewpoint
ff = velocità del vento
dd = direzione del vento
ppp = reduced air pressure
vv = visibility

Stazioni seguenti

WeatherPro
AMSI
MeteoEarth